AO-07 1 07530U 74089B 15323.46912225 -.00000024 00000-0 12457-3 0 9997 2 07530 101.5439 294.6328 0012192 2.4352 112.1433 12.53617835876710 FO-29 1 24278U 96046B 15322.84477057 .00000006 00000-0 40894-4 0 9998 2 24278 98.5646 270.8720 0350976 30.0992 21.4518 13.53060378950946 SO-33 1 25509U 98061B 15322.77731098 .00000216 00000-0 30913-4 0 9999 2 25509 31.4324 94.8918 0347615 348.8529 10.4550 14.30095727891566 RS-22 1 27939U 03042A 15323.68172273 .00000842 00000-0 16103-3 0 9997 2 27939 97.8588 118.8527 0012003 254.8400 105.1477 14.66223659648971 HO-68 1 36122U 09072B 15323.75107986 -.00000059 00000-0 -43517-4 0 9999 2 36122 100.1745 2.8713 0007937 119.5452 240.6456 13.16330724284920 AO-73 1 39444U 13066AE 15322.87353904 .00001603 00000-0 20942-3 0 9992 2 39444 097.7123 019.8359 0059120 352.6005 007.4329 14.80630332105717 EO-79 1 40025U 14033R 15323.68957936 .00002024 00000-0 22884-3 0 9994 2 40025 97.9393 224.0784 0013846 39.8494 320.3736 14.87549197 76900 XW-2A 1 40903U 15049E 15323.81209640 .00008866 00000-0 27050-3 0 9994 2 40903 97.4535 331.6657 0016993 161.4437 315.3446 15.34028666 9271 XW-2C 1 40906U 15049H 15323.76045139 .00004684 00000-0 27165-3 0 9993 2 40906 97.4554 330.5189 0017561 48.0555 38.9239 15.12514737 9189 LILACSAT-2 1 40908U 15049K 15323.78877493 .00002477 00000-0 14800-3 0 9993 2 40908 97.4616 330.5434 0018164 40.5527 78.1056 15.11869166 9180 XW-2E 1 40909U 15049L 15323.82070924 .00006520 00000-0 37230-3 0 9998 2 40909 97.4555 330.6058 0017098 50.7875 73.2675 15.12933881 9191 UO-11 1 14781U 84021B 15323.74512371 .00000678 00000-0 90647-4 0 9991 2 14781 97.7818 16.8359 0007167 285.5037 74.5385 14.82581636705071 AO-16 1 20439U 90005D 15323.41467881 .00000158 00000-0 74153-4 0 9993 2 20439 98.5541 257.4148 0011923 64.5685 47.0969 14.32587113348963 LO-19 1 20442U 90005G 15323.79715968 .00000130 00000-0 63678-4 0 9990 2 20442 98.5248 256.8757 0012741 51.6737 308.5590 14.32776486349222 AO-27 1 22825U 93061C 15322.90729947 .00000123 00000-0 65128-4 0 9990 2 22825 098.7295 273.2046 0007754 209.7918 150.2823 14.29918401154778 IO-26 1 22826U 93061D 15323.41912827 .00000142 00000-0 71919-4 0 9995 2 22826 98.7240 273.8663 0008441 199.4970 160.5890 14.30239103155278 GO-32 1 25397U 98043D 15323.44819638 .00000078 00000-0 52884-4 0 9993 2 25397 98.5403 269.1644 0000663 171.1292 303.2687 14.23570145901884 NO-44 1 26931U 01043C 15323.45331922 .00000099 00000-0 69935-4 0 9996 2 26931 67.0493 136.5664 0006697 276.9610 83.0729 14.30361042738003 SO-50 1 27607U 02058C 15322.84217690 .00001068 00000-0 17106-3 0 9990 2 27607 64.5550 86.4971 0082302 258.7912 100.3931 14.74931981694095 CO-55 1 27844U 03031E 15323.42160022 .00000243 00000-0 13009-3 0 9998 2 27844 98.6953 329.7384 0009194 206.8184 153.2519 14.21874794642493 CO-57 1 27848U 03031J 15322.87025557 .00000208 00000-0 11498-3 0 9994 2 27848 98.7049 329.1822 0008970 216.6875 262.9894 14.21511455642320 AO-51 1 28375U 04025K 15323.38078738 .00000170 00000-0 63277-4 0 9991 2 28375 98.3112 259.4755 0081976 220.4782 260.7991 14.41721314598851 CP3 1 31129U 07012N 15323.46205432 .00000743 00000-0 16867-3 0 9991 2 31129 98.0024 282.6782 0095843 189.1539 288.5571 14.56046136455715 CO-65 1 32785U 08021C 15322.88259009 .00001434 00000-0 16504-3 0 9991 2 32785 97.6305 0.6152 0011852 276.6040 168.3903 14.87205145409227 PRISM 1 33493U 09002B 15323.84772608 .00003204 00000-0 30550-3 0 9994 2 33493 98.2361 168.8304 0015478 175.5282 184.6103 14.94047149369811 SOHLA-1 1 33496U 09002E 15323.41738230 .00000455 00000-0 81628-4 0 9991 2 33496 98.2331 92.8288 0007060 40.5647 355.5988 14.71474358366001 TISAT-1 1 36799U 10035E 15323.81165962 .00002807 00000-0 30309-3 0 9990 2 36799 98.0217 66.1124 0013854 60.1738 58.5928 14.89128627290117 STUDSAT 1 36801U 10035G 15323.31765057 .00034071 00000-0 17040-2 0 9994 2 36801 98.0754 92.0740 0005661 332.4435 27.6496 15.17340306291452 ALMASAT-1 1 38078U 12006B 15323.85783133 .00050977 37027-5 80320-3 0 9995 2 38078 69.4518 205.4064 0437579 40.2242 323.0431 14.88819196198123 CUBEBUG-1 1 39153U 13018D 15323.78466237 .00001406 00000-0 19447-3 0 9990 2 39153 98.0108 47.6730 0018457 109.3387 250.9822 14.79545232138486 ESTCUBE-1 1 39161U 13021C 15323.87320907 .00001075 00000-0 18158-3 0 9996 2 39161 98.0641 45.3926 0009601 172.1075 188.0291 14.71406516136136 DUCHIFAT-1 1 40021U 14033M 15323.68080910 .00003229 00000-0 35182-3 0 9992 2 40021 97.9415 224.6810 0014576 39.2082 321.0188 14.88625150 76932 NANOSATCBR1 1 40024U 14033Q 15323.71816857 .00002311 00000-0 25677-3 0 9995 2 40024 97.9394 224.3602 0013722 38.8937 321.3264 14.88130042 76921 DTUSAT-2 1 40030U 14033W 15323.68656988 .00002129 00000-0 24257-3 0 9995 2 40030 97.9377 223.6975 0013181 33.9790 326.2267 14.87182167 76882 ANTELSAT 1 40034U 14033AA 15323.68279414 .00001618 00000-0 25260-3 0 9991 2 40034 97.9250 212.1595 0059931 342.6486 17.2680 14.73034599 76181 MET-2/21 1 22782U 93055A 15322.97090127 .00000057 00000-0 38322-4 0 9995 2 22782 082.5469 120.8541 0021317 245.6932 229.8810 13.83778985121736 OKEAN-4 1 23317U 94066A 15322.94819265 .00001062 00000-0 11573-3 0 9997 2 23317 082.5361 300.0281 0020167 172.0158 243.7071 14.86916333140303 NOAA-14 1 23455U 94089A 15323.44031703 .00000015 00000-0 30370-4 0 9998 2 23455 98.7425 41.6227 0009458 4.7777 53.8858 14.14059426 77474 NOAA-15 1 25338U 98030A 15323.47121518 .00000131 00000-0 74015-4 0 9990 2 25338 98.7790 322.2656 0011698 78.8073 281.4420 14.25678020910968 RESURS 1 25394U 98043A 15323.45520206 .00000041 00000-0 35749-4 0 9992 2 25394 98.4868 273.0874 0001649 139.3443 329.4172 14.24461798902382 FENGYUN1 1 25730U 99025A 15322.97269949 .00000860 00000-0 47789-3 0 9992 2 25730 98.9566 287.9082 0021378 59.9527 341.6519 14.13702060850923 OKEAN-0 1 25860U 99039A 15322.93800250 .00000655 00000-0 10220-3 0 9995 2 25860 098.1160 291.4327 0001375 109.8930 312.6727 14.76200368878707 NOAA-16 1 26536U 00055A 15323.79602480 .00000076 00000-0 64555-4 0 9994 2 26536 98.9256 29.4892 0011092 148.2933 211.8909 14.13116488781632 NOAA-17 1 27453U 02032A 15323.47732306 .00000073 00000-0 48598-4 0 9992 2 27453 98.3576 301.9161 0012853 87.2714 272.9937 14.24909023696778 NOAA-18 1 28654U 05018A 15323.15100491 .00000105 00000-0 82690-4 0 9999 2 28654 99.1934 319.6516 0013440 245.2265 114.7507 14.12248584540947 NOAA-19 1 33591U 09005A 15323.49618910 .00000220 00000-0 14458-3 0 9996 2 33591 99.0104 273.8904 0015008 91.9245 268.3645 14.12004356349403 HUBBLE 1 20580U 90037B 15322.94510914 .00002265 00000-0 13267-3 0 9997 2 20580 028.4696 213.2815 0003081 098.6468 359.3980 15.07900241203109 ISS 1 25544U 98067A 15323.56921446 .00018904 00000-0 28041-3 0 9991 2 25544 51.6450 28.5814 0006290 152.6519 356.6456 15.55239746972210 CO-58 1 28895U 05043F 15322.77471065 .00000892 00000-0 18234-3 0 9994 2 28895 97.8210 142.5120 0017296 163.7070 196.4692 14.62981145536197 FALCON 1 30776U 07006E 15323.49742046 .00012722 00000-0 47553-3 0 9997 2 30776 35.4252 106.0504 0000644 233.7220 178.9391 15.26583793480037 MAST 1 31126U 07012K 15323.44522341 .00000524 00000-0 12213-3 0 9995 2 31126 97.9828 284.6120 0090848 170.8324 309.3962 14.56210003456082 CAPE1 1 31130U 07012P 15323.12492992 .00000699 00000-0 16054-3 0 9993 2 31130 98.0042 281.7801 0096531 192.4269 167.4548 14.55704903455420 COMPASS 1 32787U 08021E 15323.09622545 .00002559 00000-0 26184-3 0 9990 2 32787 97.6327 5.9039 0011504 256.8558 103.1377 14.91335352409594 AAUSAT2 1 32788U 08021F 15322.91161468 .00002709 00000-0 26937-3 0 9996 2 32788 097.6335 007.5082 0011027 253.1161 106.8850 14.92448182409571 DO-64 1 32789U 08021G 15323.14879848 .00007121 00000-0 55640-3 0 9997 2 32789 97.6332 21.0094 0010223 239.4780 172.9090 15.01360717410327 CO-66 1 32791U 08021J 15323.12196662 .00002394 00000-0 25828-3 0 9996 2 32791 97.6323 3.2965 0012260 265.6794 94.3022 14.89246804409378 RS-30 1 32953U 08025A 15323.73411396 .00000010 00000-0 -13620-7 0 9996 2 32953 82.5035 237.5000 0019601 98.8052 261.5254 12.43065137339937 METEOR-M 1 35865U 09049A 15323.72833329 -.00000028 00000-0 62624-5 0 9996 2 35865 98.4829 358.3570 0003039 45.3156 64.8841 14.22053599320319 RS-38 1 35869U 09049E 15323.71126394 .00000027 00000-0 31016-4 0 9994 2 35869 98.4741 357.8944 0005362 28.7000 331.4475 14.22317443320361 JUGNU 1 37839U 11058B 15323.43524250 .00000431 00000-0 88259-4 0 9998 2 37839 19.9626 341.3294 0018821 317.9870 178.1109 14.12504096212190 SRMSAT 1 37841U 11058D 15323.45283091 .00000393 00000-0 70933-4 0 9995 2 37841 19.9732 11.0898 0011676 237.1624 241.4286 14.10509878211890 RAX-2 1 37853U 11061D 15323.41681441 .00012966 00000-0 76805-3 0 9991 2 37853 101.7009 250.8491 0189999 341.9328 17.5188 14.97719575220324 AUBIESAT 1 37854U 11061E 15323.76474672 .00013113 00000-0 75280-3 0 9997 2 37854 101.6911 255.6280 0180564 333.8886 25.3300 14.99993784220526 HRBE 1 37855U 11061F 15323.76407968 .00012962 00000-0 72557-3 0 9997 2 37855 101.7007 253.8468 0195628 337.1461 22.1128 14.98844492220449 HORYU-2 1 38340U 12025D 15323.17971740 .00001597 00000-0 24733-3 0 9992 2 38340 98.3328 297.2990 0011243 329.6885 30.3671 14.74647982188372 RS-40 1 38735U 12041C 15323.75224754 .00000040 00000-0 21992-3 0 9994 2 38735 82.4735 322.9805 0016243 197.8829 162.1679 12.42570317150231 PROITERES 1 38756U 12047B 15323.79012976 .00000785 00000-0 12164-3 0 9995 2 38756 98.2280 65.7834 0012402 155.7709 204.4095 14.75999859171959 BEESAT-3 1 39134U 13015E 15322.95548769 .00008552 00000-0 47796-3 0 9992 2 39134 064.8723 281.7543 0021012 234.9590 124.9563 15.13877195141733 BEESAT-2 1 39136U 13015G 15323.19144977 .00007106 00000-0 42088-3 0 9997 2 39136 64.8731 284.7612 0021006 232.6626 127.2584 15.11952633142089 ZACUBE-1 1 39417U 13066B 15323.23828858 .00001360 00000-0 18112-3 0 9994 2 39417 97.7117 19.8044 0059809 352.6740 7.3592 14.80037963107568 TRITON-1 1 39427U 13066M 15323.20132813 .00001068 00000-0 18086-3 0 9996 2 39427 97.6957 4.6884 0116013 32.6792 328.1522 14.66903416106584 DELFIN3XT 1 39428U 13066N 15323.19407109 .00001756 00000-0 29518-3 0 9994 2 39428 97.6973 2.7388 0124238 38.4537 322.5440 14.65812906106444 GOMX-1 1 39430U 13066Q 15323.63471313 .00000965 00000-0 18574-3 0 9995 2 39430 97.6923 355.4071 0154356 60.0126 301.6293 14.58308665106031 LO-74 1 39440U 13066AA 15323.17771001 .00001178 00000-0 17395-3 0 9999 2 39440 97.7051 13.7612 0081742 7.7996 352.4463 14.74829038107170 PUCPSAT-1 1 39442U 13066AC 15323.13408763 .00002668 00000-0 28612-3 0 9998 2 39442 97.7235 29.5159 0032001 333.4448 26.5128 14.89108613106926 SPROUT 1 39770U 14029E 15323.12177538 .00004189 00000-0 50368-3 0 9997 2 39770 97.8736 57.8959 0010514 58.6984 301.5230 14.84437654 80617 POPSAT-HIP1 1 40028U 14033U 15323.87595267 .00001910 00000-0 21684-3 0 9993 2 40028 97.9425 224.3780 0015360 35.6884 324.5358 14.87425241 76929 EO-80 1 40032U 14033Y 15323.70297875 .00001845 00000-0 21143-3 0 9991 2 40032 97.9385 223.7252 0013124 34.1490 326.0568 14.87110946 76887 VELOX-1 1 40057U 14034E 15323.78004434 .00001866 00000-0 27691-3 0 9991 2 40057 98.2077 44.3887 0012450 100.2163 260.0458 14.76244578 74835 DAURIA DX 1 1 40071U 14037C 15323.77794469 .00000889 00000-0 12329-3 0 9999 2 40071 98.3454 41.5009 0009745 98.8842 261.3486 14.80593462 73811 UKUBE-1 1 40074U 14037F 15323.74983012 .00001899 00000-0 24303-3 0 9990 2 40074 98.3479 42.7763 0005860 102.4559 257.7327 14.82607190 73888 HODOYOSHI-1 1 40299U 14070B 15323.79933922 .00004378 00000-0 20295-3 0 9997 2 40299 97.4472 43.3947 0012095 316.4274 192.0561 15.20533398 57457 CHUBUSAT-1 1 40300U 14070C 15323.79682454 .00004633 00000-0 22580-3 0 9994 2 40300 97.4444 42.2128 0020906 315.8077 192.6232 15.18642341 57381 QSAT-EOS 1 40301U 14070D 15323.79471037 .00008506 00000-0 40671-3 0 9992 2 40301 97.4393 41.4302 0029968 315.2791 193.7756 15.18845665 57347 TSUBAME 1 40302U 14070E 15323.78292674 .00004677 00000-0 25586-3 0 9993 2 40302 97.4360 39.2162 0041289 321.7937 186.8269 15.14016851 57205 FIREBIRD FU3 1 40377U 15003B 15323.71937468 .00010509 00000-0 49782-3 0 9997 2 40377 99.1000 26.0597 0152768 103.4101 258.4203 15.09747858 44006 FIREBIRD FU4 1 40378U 15003C 15323.71665897 .00010307 00000-0 48773-3 0 9997 2 40378 99.0999 26.0648 0153104 103.3753 258.4591 15.09748674 44004 GRIFEX 1 40379U 15003D 15323.71229908 .00008222 00000-0 40063-3 0 9994 2 40379 99.1014 25.7523 0155430 105.3766 256.4691 15.08607133 43980 LAMBDA-SAT 1 40458U 98067GB 15136.30676273 .20783109 12527-4 14817-2 0 9995 2 40458 051.6075 233.7697 0010355 318.5347 043.1720 16.39926603 21161 NO-84 1 40654U 15025X 15323.32524735 .00023965 00000-0 57811-3 0 01898 2 40654 054.9946 265.3083 0226176 270.4049 087.1051 15.18852727027709 NO-83 1 40655U 15025X 15323.27323563 .00030066 00000-0 69696-3 0 01950 2 40655 054.9991 264.3587 0218499 271.0059 086.5911 15.21040508027714 DEORBITSAIL 1 40719U 15032E 15323.22083413 .00002431 00000-0 36872-3 0 9998 2 40719 98.0370 211.4750 0016273 189.9569 170.1319 14.74949224 19385 NUDT-PHONESAT 1 40900U 15049B 15323.77370041 .00010321 00000-0 56754-3 0 9992 2 40900 97.4489 330.5935 0017975 67.2400 18.7884 15.14123977 9209 XW-2D 1 40907U 15049J 15323.76237366 .00004801 00000-0 27878-3 0 9991 2 40907 97.4522 330.4894 0017068 46.5444 40.3345 15.12469897 9180 XW-2F 1 40910U 15049M 15323.76597104 .00006638 00000-0 38365-3 0 9997 2 40910 97.4559 330.5092 0018206 45.4625 41.1827 15.12477125 9074 XW-2B 1 40911U 15049N 15323.76156155 .00004525 00000-0 26276-3 0 9996 2 40911 97.4577 330.5293 0017006 46.4096 40.5209 15.12496097 9085 DCBB 1 40912U 15049P 15323.76225498 .00007201 00000-0 39564-3 0 9992 2 40912 97.4567 330.6718 0018768 43.4763 43.4592 15.14256000 9090 TW-1C 1 40926U 15051B 15323.83675169 .00018412 00000-0 60860-3 0 9991 2 40926 97.3033 358.4541 0018032 81.4607 3.7717 15.31255768 8510 TW-1A 1 40928U 15051D 15323.64851008 .00010593 00000-0 35826-3 0 9996 2 40928 97.2925 358.2162 0016155 94.3409 24.0434 15.30675574 8483 IO-86 1 40931U 15052B 15323.72383437 .00001233 00000-0 83432-4 0 9994 2 40931 6.0031 15.5088 0013109 22.3696 337.6668 14.76380983 7777 AAUSat-5 1 40948U 98067GZ 15323.64413492 .00084487 00000-0 96648-3 0 9999 2 40948 51.6414 27.1460 0004289 140.8520 219.2785 15.61410633 7024 GomX-3 1 40949U 98067HA 15323.40703169 .00063635 00000-0 77798-3 0 9994 2 40949 51.6434 28.5672 0006020 160.4602 199.7136 15.59723839 6989 LQSat 1 40958U 15057A 15323.83949855 .00000464 00000-0 80423-4 0 9994 2 40958 98.0374 36.2734 0019392 105.5998 254.7341 14.72747997 6420 AO-85 1 40967U 15058D 15323.50196694 .00001732 00000-0 19539-3 0 00443 2 40967 064.7773 164.5226 0217735 269.2432 088.3721 14.74416702006068 /EX